This is the latest recevied weather packets stored in our database for station/object 9M4GHZ-13. If no packets are shown the sender has not sent any weather packets the latest 10 day(s).
| Time | Temp. | Humidity | Pressure | Rain* | Wind** | Luminosity | Snow |
|---|---|---|---|---|---|---|---|
| 1778168405 | 26.67° C | 89% | 1008 hPa | - | - | - | - |
| 1778167804 | 26.67° C | 89% | 1007.9 hPa | - | - | - | - |
| 1778167205 | 26.67° C | 89% | 1007.9 hPa | - | - | - | - |
| 1778166605 | 27.22° C | 89% | 1007.6 hPa | - | - | - | - |
| 1778166004 | 27.22° C | 89% | 1007.6 hPa | - | - | - | - |
| 1778165404 | 27.22° C | 88% | 1007.5 hPa | - | - | - | - |
| 1778164805 | 27.22° C | 88% | 1007.7 hPa | - | - | - | - |
| 1778164204 | 27.22° C | 86% | 1007.7 hPa | - | - | - | - |
| 1778163604 | 27.22° C | 88% | 1007.8 hPa | - | - | - | - |
| 1778163009 | 27.22° C | 89% | 1007.7 hPa | - | - | - | - |
| 1778162403 | 27.22° C | 88% | 1007.6 hPa | - | - | - | - |
| 1778161804 | 26.67° C | 88% | 1007.5 hPa | - | - | - | - |
| 1778161205 | 27.22° C | 88% | 1007.5 hPa | - | - | - | - |
| 1778160604 | 27.22° C | 88% | 1007.4 hPa | - | - | - | - |
| 1778160005 | 27.22° C | 88% | 1007.2 hPa | - | - | - | - |
| 1778159405 | 27.22° C | 86% | 1007.3 hPa | - | - | - | - |
| 1778158805 | 27.22° C | 85% | 1007.1 hPa | - | - | - | - |
| 1778158204 | 26.67° C | 86% | 1006.9 hPa | - | - | - | - |
| 1778157605 | 27.22° C | 87% | 1006.7 hPa | - | - | - | - |
| 1778157004 | 27.78° C | 78% | 1006.7 hPa | - | - | - | - |
| 1778156406 | 27.78° C | 79% | 1006.6 hPa | - | - | - | - |
| 1778155805 | 27.22° C | 81% | 1006.6 hPa | - | - | - | - |
| 1778155204 | 27.22° C | 84% | 1006.5 hPa | - | - | - | - |
| 1778154605 | 27.22° C | 83% | 1006.4 hPa | - | - | - | - |
| 1778154005 | 27.78° C | 79% | 1006 hPa | - | - | - | - |
* Rain since midnight (hover to see other rain measurements)
** Current wind speed in m/s (hover to see current wind gust speed)